Location: Stoke Bliss
(52.2667°N, 2.5167°W)
Time: 04:52:43
(UTC+00:00)

Cosmos 1898 Rocket - Visible Passes

Search period start: 06 October 2022 00:00
Search period end: 16 October 2022 00:00
Orbit: 752 x 784 km, 74.0° (Epoch: 05 October)

Date Brightness Start Highest point End Pass type
(mag) Time Alt. Az. Time Alt. Az. Time Alt. Az.
06 Oct 6.3 01:25:30 10° NNW 01:25:30 10° NNW 01:26:12 10° NNW visible
06 Oct 6.2 04:53:13 10° N 04:55:17 12° NNE 04:57:20 10° NE visible
06 Oct 6.3 23:08:48 12° NNE 23:08:48 12° NNE 23:09:15 10° NNE visible
07 Oct 6.3 00:49:04 12° NNW 00:49:04 12° NNW 00:50:12 10° N visible
08 Oct 6.3 00:12:38 13° N 00:12:38 13° N 00:13:37 10° N visible
08 Oct 6.0 05:20:14 10° N 05:24:14 21° NE 05:28:11 10° E visible
08 Oct 6.4 23:36:11 13° N 23:36:11 13° N 23:36:52 10° N visible
09 Oct 6.2 04:43:33 10° N 04:46:42 16° NE 04:49:51 10° ENE visible
09 Oct 6.4 22:59:44 11° NNE 22:59:44 11° NNE 23:00:01 10° NNE visible
10 Oct 6.5 00:39:59 10° NNW 00:39:59 10° NNW 00:40:10 10° NNW visible
10 Oct 6.3 04:07:06 10° N 04:09:05 12° NNE 04:11:04 10° NE visible
10 Oct 5.0 05:47:46 10° NNW 05:52:47 39° NE 05:57:45 10° ESE visible
11 Oct 6.5 00:03:32 11° N 00:03:32 11° N 00:04:05 10° N visible
11 Oct 5.6 05:10:54 10° N 05:15:28 28° NE 05:20:00 10° ESE visible
11 Oct 6.5 23:27:05 11° N 23:27:05 11° N 23:27:28 10° N visible
12 Oct 6.0 04:34:05 10° N 04:38:02 20° NE 04:41:57 10° E visible
12 Oct 6.5 22:50:37 10° N 22:50:37 10° N 22:50:42 10° N visible
13 Oct 6.2 03:57:24 10° N 04:00:30 15° NE 04:03:36 10° ENE visible
13 Oct 4.3 05:38:34 10° NNW 05:43:51 55° ENE 05:49:03 10° SE visible
14 Oct 6.4 03:20:59 10° N 03:22:53 12° NNE 03:24:47 10° NE visible
14 Oct 5.0 05:01:37 10° NNW 05:06:37 38° NE 05:11:33 10° ESE visible
15 Oct 5.6 04:24:44 10° N 04:29:16 27° NE 04:33:46 10° ESE visible
